| time (UTC) | temp C | wind direction | speed KPH | gust KPH | rain 1hr cm | rain 24hr cm | rain mn cm | humidity % | barometer mb |
| 20260504210447 | 24 | 224 | 30.6 | 66.0 | 0.00 | 0.00 | 0.00 | 62 | 1010.0 |
| 20260504210247 | 24 | 224 | 30.6 | 66.0 | 0.00 | 0.00 | 0.00 | 62 | 1010.0 |
| 20260504210048 | 24 | 224 | 30.6 | 66.0 | 0.00 | 0.00 | 0.00 | 62 | 1010.0 |
| 20260504205847 | 24 | 223 | 29.0 | 62.8 | 0.00 | 0.00 | 0.00 | 62 | 1010.0 |
| 20260504205647 | 24 | 223 | 29.0 | 62.8 | 0.00 | 0.00 | 0.00 | 62 | 1010.0 |
| 20260504205447 | 24 | 223 | 29.0 | 62.8 | 0.00 | 0.00 | 0.00 | 62 | 1010.0 |
| 20260504205247 | 24 | 223 | 29.0 | 62.8 | 0.00 | 0.00 | 0.00 | 62 | 1010.0 |
| 20260504205047 | 24 | 223 | 29.0 | 62.8 | 0.00 | 0.00 | 0.00 | 62 | 1010.0 |
| 20260504204847 | 24 | 223 | 29.0 | 62.8 | 0.00 | 0.00 | 0.00 | 62 | 1010.0 |
| 20260504204648 | 24 | 223 | 29.0 | 62.8 | 0.00 | 0.00 | 0.00 | 62 | 1010.0 |
| 20260504204247 | 24 | 221 | 27.4 | 59.5 | 0.00 | 0.00 | 0.00 | 62 | 1010.0 |
| 20260504204047 | 24 | 221 | 27.4 | 59.5 | 0.00 | 0.00 | 0.00 | 62 | 1010.0 |
| 20260504203847 | 24 | 221 | 27.4 | 59.5 | 0.00 | 0.00 | 0.00 | 62 | 1010.0 |
| 20260504203647 | 24 | 221 | 27.4 | 59.5 | 0.00 | 0.00 | 0.00 | 62 | 1010.0 |
| 20260504203447 | 24 | 221 | 27.4 | 59.5 | 0.00 | 0.00 | 0.00 | 62 | 1010.0 |
| 20260504203247 | 24 | 221 | 27.4 | 59.5 | 0.00 | 0.00 | 0.00 | 62 | 1010.0 |
| 20260504203047 | 24 | 221 | 27.4 | 59.5 | 0.00 | 0.00 | 0.00 | 62 | 1010.0 |
| 20260504202847 | 24 | 219 | 25.7 | 54.7 | 0.00 | 0.00 | 0.00 | 62 | 1010.0 |
| 20260504202647 | 24 | 219 | 25.7 | 54.7 | 0.00 | 0.00 | 0.00 | 62 | 1010.0 |
| 20260504202247 | 24 | 214 | 29.0 | 54.7 | 0.00 | 0.00 | 0.00 | 62 | 1010.0 |
| 20260504202047 | 24 | 214 | 29.0 | 54.7 | 0.00 | 0.00 | 0.00 | 62 | 1010.0 |
| 20260504201847 | 24 | 214 | 29.0 | 54.7 | 0.00 | 0.00 | 0.00 | 62 | 1010.0 |
| 20260504201647 | 24 | 214 | 29.0 | 54.7 | 0.00 | 0.00 | 0.00 | 62 | 1010.0 |
| 20260504201447 | 24 | 209 | 29.0 | 51.5 | 0.00 | 0.00 | 0.00 | 62 | 1010.0 |
| 20260504201247 | 24 | 209 | 29.0 | 51.5 | 0.00 | 0.00 | 0.00 | 62 | 1010.0 |
| 20260504201047 | 24 | 209 | 29.0 | 51.5 | 0.00 | 0.00 | 0.00 | 62 | 1010.0 |
| 20260504200847 | 24 | 209 | 29.0 | 51.5 | 0.00 | 0.00 | 0.00 | 62 | 1010.0 |
| 20260504200647 | 24 | 209 | 29.0 | 51.5 | 0.00 | 0.00 | 0.00 | 62 | 1010.0 |
| 20260504200448 | 24 | 209 | 29.0 | 51.5 | 0.00 | 0.00 | 0.00 | 62 | 1010.0 |
| 20260504200048 | 24 | 209 | 29.0 | 51.5 | 0.00 | 0.00 | 0.00 | 62 | 1010.0 |
| 20260504195847 | 24 | 192 | 29.0 | 51.5 | 0.00 | 0.00 | 0.00 | 62 | 1010.0 |
| 20260504195647 | 24 | 192 | 29.0 | 51.5 | 0.00 | 0.00 | 0.00 | 62 | 1010.0 |
| 20260504195447 | 24 | 192 | 29.0 | 51.5 | 0.00 | 0.00 | 0.00 | 62 | 1010.0 |
| 20260504195247 | 24 | 192 | 29.0 | 51.5 | 0.00 | 0.00 | 0.00 | 62 | 1010.0 |
| 20260504195047 | 24 | 192 | 29.0 | 51.5 | 0.00 | 0.00 | 0.00 | 62 | 1010.0 |
| 20260504194847 | 24 | 192 | 29.0 | 51.5 | 0.00 | 0.00 | 0.00 | 62 | 1010.0 |
| 20260504194647 | 24 | 192 | 29.0 | 51.5 | 0.00 | 0.00 | 0.00 | 62 | 1010.0 |
| 20260504194447 | 24 | 193 | 32.2 | 51.5 | 0.00 | 0.00 | 0.00 | 62 | 1011.0 |
| 20260504194247 | 24 | 193 | 32.2 | 51.5 | 0.00 | 0.00 | 0.00 | 62 | 1011.0 |
| 20260504191447 | 25 | 195 | 37.0 | 86.9 | 0.00 | 0.00 | 0.00 | 60 | 1011.0 |
| 20260504191247 | 25 | 195 | 37.0 | 86.9 | 0.00 | 0.00 | 0.00 | 60 | 1011.0 |
| 20260504191047 | 25 | 195 | 37.0 | 86.9 | 0.00 | 0.00 | 0.00 | 63 | 1011.0 |
| 20260504190847 | 25 | 195 | 37.0 | 86.9 | 0.00 | 0.00 | 0.00 | 63 | 1011.0 |
| 20260504190647 | 25 | 195 | 37.0 | 86.9 | 0.00 | 0.00 | 0.00 | 63 | 1011.0 |
| 20260504190447 | 25 | 195 | 37.0 | 86.9 | 0.00 | 0.00 | 0.00 | 63 | 1011.0 |
| 20260504190247 | 25 | 195 | 37.0 | 86.9 | 0.00 | 0.00 | 0.00 | 63 | 1011.0 |
| 20260504190048 | 25 | 195 | 37.0 | 86.9 | 0.00 | 0.00 | 0.00 | 63 | 1011.0 |
| 20260504185847 | 25 | 195 | 37.0 | 83.7 | 0.00 | 0.05 | 0.00 | 63 | 1011.0 |
| 20260504185647 | 25 | 195 | 37.0 | 83.7 | 0.00 | 0.05 | 0.00 | 63 | 1011.0 |
| 20260504183247 | 25 | 195 | 37.0 | 80.5 | 0.00 | 0.05 | 0.00 | 62 | 1012.0 |
| 20260504183048 | 25 | 195 | 37.0 | 80.5 | 0.00 | 0.05 | 0.00 | 62 | 1012.0 |
| 20260504182846 | 25 | 195 | 37.0 | 75.6 | 0.00 | 0.05 | 0.00 | 61 | 1012.0 |
| 20260504182646 | 25 | 195 | 37.0 | 75.6 | 0.00 | 0.05 | 0.00 | 61 | 1012.0 |
| 20260504182447 | 25 | 195 | 37.0 | 75.6 | 0.00 | 0.05 | 0.00 | 61 | 1012.0 |
| 20260504182248 | 25 | 195 | 37.0 | 75.6 | 0.00 | 0.05 | 0.00 | 61 | 1012.0 |
| 20260504182048 | 25 | 195 | 37.0 | 75.6 | 0.00 | 0.05 | 0.00 | 61 | 1012.0 |
| 20260504181646 | 25 | 195 | 37.0 | 75.6 | 0.00 | 0.05 | 0.00 | 61 | 1012.0 |
| 20260504181446 | 25 | 191 | 35.4 | 72.4 | 0.00 | 0.05 | 0.00 | 60 | 1012.0 |
| 20260504181246 | 25 | 191 | 35.4 | 72.4 | 0.00 | 0.05 | 0.00 | 60 | 1012.0 |
| 20260504181047 | 25 | 191 | 35.4 | 72.4 | 0.00 | 0.05 | 0.00 | 60 | 1012.0 |
| 20260504180846 | 25 | 191 | 35.4 | 72.4 | 0.00 | 0.05 | 0.00 | 60 | 1012.0 |
| 20260504180646 | 25 | 191 | 35.4 | 72.4 | 0.00 | 0.05 | 0.00 | 60 | 1012.0 |
| 20260504180447 | 25 | 191 | 35.4 | 72.4 | 0.00 | 0.05 | 0.00 | 60 | 1012.0 |
| 20260504180247 | 25 | 191 | 35.4 | 72.4 | 0.00 | 0.05 | 0.00 | 60 | 1012.0 |
| 20260504180049 | 25 | 191 | 35.4 | 72.4 | 0.00 | 0.05 | 0.00 | 60 | 1012.0 |
| 20260504175549 | 25 | 184 | 33.8 | 72.4 | 0.00 | 0.05 | 0.00 | 59 | 1012.0 |
| 20260504175348 | 25 | 184 | 33.8 | 72.4 | 0.00 | 0.05 | 0.00 | 59 | 1012.0 |
| 20260504175148 | 25 | 184 | 33.8 | 72.4 | 0.00 | 0.05 | 0.00 | 59 | 1012.0 |
| 20260504174949 | 25 | 184 | 33.8 | 72.4 | 0.00 | 0.05 | 0.00 | 59 | 1012.0 |
| 20260504174749 | 25 | 184 | 33.8 | 72.4 | 0.00 | 0.05 | 0.00 | 59 | 1012.0 |
| 20260504174548 | 25 | 184 | 33.8 | 72.4 | 0.00 | 0.05 | 0.00 | 59 | 1012.0 |
| 20260504174349 | 25 | 172 | 32.2 | 72.4 | 0.00 | 0.05 | 0.00 | 58 | 1012.0 |
| 20260504173609 | 25 | 172 | 32.2 | 72.4 | 0.00 | 0.05 | 0.00 | 58 | 1012.0 |
| 20260504173409 | 25 | 172 | 32.2 | 72.4 | 0.00 | 0.05 | 0.00 | 58 | 1012.0 |
| 20260504173209 | 25 | 172 | 32.2 | 72.4 | 0.00 | 0.05 | 0.00 | 58 | 1012.0 |
| 20260504172630 | 25 | 158 | 30.6 | 70.8 | 0.00 | 0.05 | 0.00 | 58 | 1012.0 |
| 20260504172430 | 25 | 158 | 30.6 | 70.8 | 0.00 | 0.05 | 0.00 | 58 | 1012.0 |
| 20260504172230 | 25 | 158 | 30.6 | 70.8 | 0.00 | 0.05 | 0.00 | 58 | 1012.0 |
| 20260504171831 | 25 | 158 | 30.6 | 70.8 | 0.00 | 0.05 | 0.00 | 58 | 1012.0 |
| 20260504171631 | 25 | 158 | 30.6 | 70.8 | 0.00 | 0.05 | 0.00 | 58 | 1012.0 |
| 20260504171431 | 26 | 145 | 30.6 | 70.8 | 0.00 | 0.05 | 0.00 | 56 | 1012.0 |
| 20260504171231 | 26 | 145 | 30.6 | 70.8 | 0.00 | 0.05 | 0.00 | 56 | 1012.0 |
| 20260504171031 | 26 | 145 | 30.6 | 70.8 | 0.00 | 0.05 | 0.00 | 56 | 1012.0 |
| 20260504170831 | 26 | 145 | 30.6 | 70.8 | 0.00 | 0.05 | 0.00 | 56 | 1012.0 |
| 20260504170631 | 26 | 145 | 30.6 | 70.8 | 0.00 | 0.05 | 0.00 | 56 | 1012.0 |
| 20260504170431 | 26 | 145 | 30.6 | 70.8 | 0.00 | 0.05 | 0.00 | 56 | 1012.0 |
| 20260504170231 | 26 | 145 | 30.6 | 70.8 | 0.00 | 0.05 | 0.00 | 56 | 1012.0 |
| 20260504160431 | 27 | 107 | 32.2 | 66.0 | 0.00 | 0.05 | 0.00 | 50 | 1011.0 |
| 20260504160231 | 27 | 107 | 32.2 | 66.0 | 0.00 | 0.05 | 0.00 | 50 | 1011.0 |
| 20260504150831 | 28 | 148 | 20.9 | 48.3 | 0.00 | 0.05 | 0.00 | 40 | 1010.0 |
| 20260504150634 | 28 | 148 | 20.9 | 48.3 | 0.00 | 0.05 | 0.00 | 40 | 1010.0 |
| 20260504150431 | 28 | 148 | 20.9 | 48.3 | 0.00 | 0.05 | 0.00 | 40 | 1010.0 |
| 20260504150231 | 28 | 148 | 20.9 | 48.3 | 0.00 | 0.05 | 0.00 | 40 | 1010.0 |
| 20260504141231 | 30 | 342 | 9.7 | 41.8 | 0.00 | 0.05 | 0.00 | 31 | 1009.0 |
| 20260504141031 | 30 | 342 | 9.7 | 41.8 | 0.00 | 0.05 | 0.00 | 31 | 1009.0 |
| 20260504140831 | 30 | 342 | 9.7 | 41.8 | 0.00 | 0.05 | 0.00 | 31 | 1009.0 |
| 20260504140336 | 30 | 302 | 19.3 | 41.8 | 0.00 | 0.05 | 0.00 | 31 | 1009.0 |
| 20260504140137 | 30 | 302 | 19.3 | 41.8 | 0.00 | 0.05 | 0.00 | 31 | 1009.0 |
| 20260504130736 | 32 | 348 | 25.7 | 82.1 | 0.00 | 0.05 | 0.00 | 27 | 1007.0 |
| 20260504130536 | 32 | 348 | 25.7 | 82.1 | 0.00 | 0.05 | 0.00 | 27 | 1007.0 |
| 20260504130137 | 32 | 348 | 25.7 | 82.1 | 0.00 | 0.05 | 0.00 | 27 | 1007.0 |
| 20260504110259 | 34 | 3 | 33.8 | 93.3 | 0.00 | 0.05 | 0.00 | 23 | 1006.0 |
| 20260504100459 | 34 | 360 | 29.0 | 86.9 | 0.00 | 0.05 | 0.00 | 24 | 1006.0 |
| 20260504100300 | 34 | 360 | 29.0 | 86.9 | 0.00 | 0.05 | 0.00 | 24 | 1006.0 |
| 20260504081959 | 34 | 4 | 24.1 | 86.9 | 0.00 | 0.05 | 0.00 | 26 | 1008.0 |
| 20260504081800 | 34 | 4 | 24.1 | 86.9 | 0.00 | 0.05 | 0.00 | 26 | 1008.0 |
| 20260504081359 | 33 | 2 | 25.7 | 88.5 | 0.00 | 0.05 | 0.00 | 26 | 1008.0 |
| 20260504081159 | 33 | 2 | 25.7 | 88.5 | 0.00 | 0.05 | 0.00 | 26 | 1008.0 |
| 20260504080959 | 33 | 2 | 25.7 | 88.5 | 0.00 | 0.05 | 0.00 | 26 | 1008.0 |
| 20260504080759 | 33 | 2 | 25.7 | 88.5 | 0.00 | 0.05 | 0.00 | 26 | 1008.0 |
| 20260504080559 | 33 | 2 | 25.7 | 88.5 | 0.00 | 0.05 | 0.00 | 26 | 1008.0 |
| 20260504080359 | 33 | 2 | 25.7 | 88.5 | 0.00 | 0.05 | 0.00 | 26 | 1008.0 |
| 20260504080159 | 33 | 2 | 25.7 | 88.5 | 0.00 | 0.05 | 0.00 | 26 | 1008.0 |
| 20260504070359 | 34 | 340 | 30.6 | 99.8 | 0.00 | 0.00 | 0.00 | 27 | 1009.0 |
| 20260504070159 | 34 | 340 | 30.6 | 99.8 | 0.00 | 0.00 | 0.00 | 25 | 1009.0 |
| 20260504060234 | 33 | 326 | 32.2 | 99.8 | 0.00 | 0.00 | 0.00 | 28 | 1010.0 |
| 20260504050547 | 31 | 308 | 32.2 | 99.8 | 0.00 | 0.00 | 0.00 | 37 | 1011.0 |
| 20260504050347 | 31 | 308 | 32.2 | 99.8 | 0.00 | 0.00 | 0.00 | 37 | 1011.0 |
| 20260504050147 | 31 | 308 | 32.2 | 99.8 | 0.00 | 0.00 | 0.00 | 37 | 1011.0 |
| 20260504045947 | 31 | 305 | 32.2 | 96.6 | 0.00 | 0.00 | 0.00 | 40 | 1011.0 |
| 20260504045747 | 31 | 305 | 32.2 | 96.6 | 0.00 | 0.00 | 0.00 | 40 | 1011.0 |
| 20260504045547 | 31 | 305 | 32.2 | 96.6 | 0.00 | 0.00 | 0.00 | 40 | 1011.0 |
| 20260504045347 | 31 | 305 | 32.2 | 96.6 | 0.00 | 0.00 | 0.00 | 40 | 1011.0 |
| 20260504045147 | 31 | 305 | 32.2 | 96.6 | 0.00 | 0.00 | 0.00 | 40 | 1011.0 |
| 20260504044947 | 31 | 305 | 32.2 | 96.6 | 0.00 | 0.00 | 0.00 | 40 | 1011.0 |
| 20260504044547 | 31 | 305 | 32.2 | 96.6 | 0.00 | 0.00 | 0.00 | 40 | 1011.0 |
| 20260504044347 | 30 | 301 | 32.2 | 95.0 | 0.00 | 0.00 | 0.00 | 43 | 1011.0 |
| 20260504044147 | 30 | 301 | 32.2 | 95.0 | 0.00 | 0.00 | 0.00 | 43 | 1011.0 |
| 20260504043947 | 30 | 301 | 32.2 | 95.0 | 0.00 | 0.00 | 0.00 | 43 | 1011.0 |
| 20260504043747 | 30 | 301 | 32.2 | 95.0 | 0.00 | 0.00 | 0.00 | 43 | 1011.0 |
| 20260504043547 | 30 | 301 | 32.2 | 95.0 | 0.00 | 0.00 | 0.00 | 43 | 1011.0 |
| 20260504043347 | 30 | 301 | 32.2 | 95.0 | 0.00 | 0.00 | 0.00 | 43 | 1011.0 |
| 20260504043147 | 30 | 301 | 32.2 | 95.0 | 0.00 | 0.00 | 0.00 | 43 | 1011.0 |
| 20260504042947 | 29 | 296 | 32.2 | 91.7 | 0.00 | 0.00 | 0.00 | 47 | 1012.0 |
| 20260504042547 | 29 | 296 | 32.2 | 91.7 | 0.00 | 0.00 | 0.00 | 47 | 1012.0 |
| 20260504042347 | 29 | 296 | 32.2 | 91.7 | 0.00 | 0.00 | 0.00 | 47 | 1012.0 |
| 20260504042147 | 29 | 296 | 32.2 | 91.7 | 0.00 | 0.00 | 0.00 | 47 | 1012.0 |
| 20260504041947 | 29 | 296 | 32.2 | 91.7 | 0.00 | 0.00 | 0.00 | 47 | 1012.0 |
| 20260504041747 | 29 | 296 | 32.2 | 91.7 | 0.00 | 0.00 | 0.00 | 47 | 1012.0 |
| 20260504041547 | 29 | 296 | 32.2 | 91.7 | 0.00 | 0.00 | 0.00 | 47 | 1012.0 |
| 20260504041347 | 28 | 292 | 32.2 | 88.5 | 0.00 | 0.00 | 0.00 | 52 | 1012.0 |
| 20260504041147 | 28 | 292 | 32.2 | 88.5 | 0.00 | 0.00 | 0.00 | 52 | 1012.0 |
| 20260504040947 | 28 | 292 | 32.2 | 88.5 | 0.00 | 0.00 | 0.00 | 52 | 1012.0 |
| 20260504040748 | 28 | 292 | 32.2 | 88.5 | 0.00 | 0.00 | 0.00 | 52 | 1012.0 |
| 20260504040347 | 28 | 292 | 32.2 | 88.5 | 0.00 | 0.00 | 0.00 | 52 | 1012.0 |
| 20260504040148 | 28 | 292 | 32.2 | 88.5 | 0.00 | 0.00 | 0.00 | 52 | 1012.0 |
| 20260504035947 | 28 | 289 | 30.6 | 88.5 | 0.00 | 0.00 | 0.00 | 54 | 1012.0 |
| 20260504035747 | 28 | 289 | 30.6 | 88.5 | 0.00 | 0.00 | 0.00 | 54 | 1012.0 |
| 20260504035548 | 28 | 289 | 30.6 | 88.5 | 0.00 | 0.00 | 0.00 | 54 | 1012.0 |
| 20260504035347 | 28 | 289 | 30.6 | 88.5 | 0.00 | 0.00 | 0.00 | 54 | 1012.0 |
| 20260504035147 | 28 | 289 | 30.6 | 88.5 | 0.00 | 0.00 | 0.00 | 54 | 1012.0 |
| 20260504034947 | 28 | 289 | 30.6 | 88.5 | 0.00 | 0.00 | 0.00 | 54 | 1012.0 |
| 20260504034747 | 28 | 289 | 30.6 | 88.5 | 0.00 | 0.00 | 0.00 | 54 | 1012.0 |
| 20260504034347 | 27 | 284 | 30.6 | 85.3 | 0.00 | 0.00 | 0.00 | 58 | 1012.0 |
| 20260504034147 | 27 | 284 | 30.6 | 85.3 | 0.00 | 0.00 | 0.00 | 58 | 1012.0 |
| 20260504033947 | 27 | 284 | 30.6 | 85.3 | 0.00 | 0.00 | 0.00 | 58 | 1012.0 |
| 20260504033747 | 27 | 284 | 30.6 | 85.3 | 0.00 | 0.00 | 0.00 | 58 | 1012.0 |
| 20260504033547 | 27 | 284 | 30.6 | 85.3 | 0.00 | 0.00 | 0.00 | 58 | 1012.0 |
| 20260504033347 | 27 | 284 | 30.6 | 85.3 | 0.00 | 0.00 | 0.00 | 58 | 1012.0 |
| 20260504033147 | 27 | 284 | 30.6 | 85.3 | 0.00 | 0.00 | 0.00 | 58 | 1012.0 |
| 20260504032947 | 27 | 279 | 29.0 | 82.1 | 0.00 | 0.00 | 0.00 | 62 | 1012.0 |
| 20260504032747 | 27 | 279 | 29.0 | 82.1 | 0.00 | 0.00 | 0.00 | 62 | 1012.0 |
| 20260504032548 | 27 | 279 | 29.0 | 82.1 | 0.00 | 0.00 | 0.00 | 62 | 1012.0 |
| 20260504032147 | 27 | 279 | 29.0 | 82.1 | 0.00 | 0.00 | 0.00 | 62 | 1012.0 |
| 20260504031947 | 27 | 279 | 29.0 | 82.1 | 0.00 | 0.00 | 0.00 | 62 | 1012.0 |
| 20260504031747 | 27 | 279 | 29.0 | 82.1 | 0.00 | 0.00 | 0.00 | 62 | 1012.0 |
| 20260504031547 | 27 | 279 | 29.0 | 82.1 | 0.00 | 0.00 | 0.00 | 62 | 1012.0 |
| 20260504031347 | 26 | 274 | 29.0 | 80.5 | 0.00 | 0.00 | 0.00 | 66 | 1012.0 |
| 20260504031147 | 26 | 274 | 29.0 | 80.5 | 0.00 | 0.00 | 0.00 | 66 | 1012.0 |
| 20260504030947 | 26 | 274 | 29.0 | 80.5 | 0.00 | 0.00 | 0.00 | 66 | 1012.0 |
| 20260504030747 | 26 | 274 | 29.0 | 80.5 | 0.00 | 0.00 | 0.00 | 66 | 1012.0 |
| 20260504030547 | 26 | 274 | 29.0 | 80.5 | 0.00 | 0.00 | 0.00 | 66 | 1012.0 |
| 20260504030348 | 26 | 274 | 29.0 | 80.5 | 0.00 | 0.00 | 0.00 | 66 | 1012.0 |
| 20260504025947 | 25 | 274 | 27.4 | 77.2 | 0.00 | 0.00 | 0.00 | 69 | 1012.0 |
| 20260504025747 | 25 | 274 | 27.4 | 77.2 | 0.00 | 0.00 | 0.00 | 69 | 1012.0 |
| 20260504025547 | 25 | 274 | 27.4 | 77.2 | 0.00 | 0.00 | 0.00 | 69 | 1012.0 |
| 20260504025347 | 25 | 274 | 27.4 | 77.2 | 0.00 | 0.00 | 0.00 | 69 | 1012.0 |
| 20260504025147 | 25 | 274 | 27.4 | 77.2 | 0.00 | 0.00 | 0.00 | 69 | 1012.0 |
| 20260504024947 | 25 | 274 | 27.4 | 77.2 | 0.00 | 0.00 | 0.00 | 69 | 1012.0 |
| 20260504024747 | 25 | 274 | 27.4 | 77.2 | 0.00 | 0.00 | 0.00 | 69 | 1012.0 |
| 20260504024547 | 25 | 274 | 27.4 | 77.2 | 0.00 | 0.00 | 0.00 | 69 | 1012.0 |
| 20260504024347 | 25 | 274 | 27.4 | 74.0 | 0.00 | 0.00 | 0.00 | 74 | 1012.0 |
| 20260504024148 | 25 | 274 | 27.4 | 74.0 | 0.00 | 0.00 | 0.00 | 74 | 1012.0 |
| 20260504023747 | 25 | 274 | 27.4 | 74.0 | 0.00 | 0.00 | 0.00 | 74 | 1012.0 |
| 20260504023547 | 25 | 274 | 27.4 | 74.0 | 0.00 | 0.00 | 0.00 | 74 | 1012.0 |
| 20260504023347 | 25 | 274 | 27.4 | 74.0 | 0.00 | 0.00 | 0.00 | 74 | 1012.0 |
| 20260504023147 | 25 | 274 | 27.4 | 74.0 | 0.00 | 0.00 | 0.00 | 74 | 1012.0 |
| 20260504022947 | 24 | 272 | 25.7 | 70.8 | 0.00 | 0.00 | 0.00 | 78 | 1012.0 |
| 20260504022747 | 24 | 272 | 25.7 | 70.8 | 0.00 | 0.00 | 0.00 | 78 | 1012.0 |
| 20260504022547 | 24 | 272 | 25.7 | 70.8 | 0.00 | 0.00 | 0.00 | 78 | 1012.0 |
| 20260504022347 | 24 | 272 | 25.7 | 70.8 | 0.00 | 0.00 | 0.00 | 78 | 1012.0 |
| 20260504022147 | 24 | 272 | 25.7 | 70.8 | 0.00 | 0.00 | 0.00 | 78 | 1012.0 |
| 20260504021551 | 24 | 272 | 25.7 | 70.8 | 0.00 | 0.00 | 0.00 | 78 | 1012.0 |
| 20260504021351 | 23 | 271 | 25.7 | 66.0 | 0.00 | 0.00 | 0.00 | 83 | 1012.0 |
| 20260504021151 | 23 | 271 | 25.7 | 66.0 | 0.00 | 0.00 | 0.00 | 83 | 1012.0 |
| 20260504020951 | 23 | 271 | 25.7 | 66.0 | 0.00 | 0.00 | 0.00 | 83 | 1012.0 |
| 20260504020551 | 23 | 271 | 25.7 | 66.0 | 0.00 | 0.00 | 0.00 | 83 | 1012.0 |
| 20260504020351 | 23 | 271 | 25.7 | 66.0 | 0.00 | 0.00 | 0.00 | 83 | 1012.0 |
| 20260504020151 | 23 | 271 | 25.7 | 66.0 | 0.00 | 0.00 | 0.00 | 83 | 1012.0 |
| 20260504015951 | 23 | 270 | 24.1 | 62.8 | 0.00 | 0.00 | 0.00 | 84 | 1012.0 |
| 20260504015751 | 23 | 270 | 24.1 | 62.8 | 0.00 | 0.00 | 0.00 | 84 | 1012.0 |
| 20260504015551 | 23 | 270 | 24.1 | 62.8 | 0.00 | 0.00 | 0.00 | 84 | 1012.0 |
| 20260504015351 | 23 | 270 | 24.1 | 62.8 | 0.00 | 0.00 | 0.00 | 84 | 1012.0 |
| 20260504015151 | 23 | 270 | 24.1 | 62.8 | 0.00 | 0.00 | 0.00 | 84 | 1012.0 |
| 20260504014951 | 23 | 270 | 24.1 | 62.8 | 0.00 | 0.00 | 0.00 | 84 | 1012.0 |
| 20260504014551 | 23 | 270 | 24.1 | 62.8 | 0.00 | 0.00 | 0.00 | 84 | 1012.0 |
| 20260504014351 | 22 | 267 | 24.1 | 59.5 | 0.00 | 0.00 | 0.00 | 87 | 1012.0 |
| 20260504014151 | 22 | 267 | 24.1 | 59.5 | 0.00 | 0.00 | 0.00 | 87 | 1012.0 |
| 20260504013951 | 22 | 267 | 24.1 | 59.5 | 0.00 | 0.00 | 0.00 | 87 | 1012.0 |
| 20260504013751 | 22 | 267 | 24.1 | 59.5 | 0.00 | 0.00 | 0.00 | 87 | 1012.0 |
| 20260504013551 | 22 | 267 | 24.1 | 59.5 | 0.00 | 0.00 | 0.00 | 87 | 1012.0 |
| 20260504013351 | 22 | 267 | 24.1 | 59.5 | 0.00 | 0.00 | 0.00 | 87 | 1012.0 |
| 20260504013151 | 22 | 267 | 24.1 | 59.5 | 0.00 | 0.00 | 0.00 | 87 | 1012.0 |
| 20260504012951 | 22 | 265 | 24.1 | 54.7 | 0.00 | 0.00 | 0.00 | 89 | 1011.0 |
| 20260504012752 | 22 | 265 | 24.1 | 54.7 | 0.00 | 0.00 | 0.00 | 89 | 1011.0 |
| 20260504012351 | 22 | 265 | 24.1 | 54.7 | 0.00 | 0.00 | 0.00 | 89 | 1011.0 |
| 20260504012151 | 22 | 265 | 24.1 | 54.7 | 0.00 | 0.00 | 0.00 | 89 | 1011.0 |
| 20260504011951 | 22 | 265 | 24.1 | 54.7 | 0.00 | 0.00 | 0.00 | 89 | 1011.0 |
| 20260504011751 | 22 | 265 | 24.1 | 54.7 | 0.00 | 0.00 | 0.00 | 89 | 1011.0 |
| 20260504011551 | 22 | 265 | 24.1 | 54.7 | 0.00 | 0.00 | 0.00 | 89 | 1011.0 |
| 20260504011351 | 22 | 263 | 22.5 | 51.5 | 0.00 | 0.00 | 0.00 | 91 | 1011.0 |
| 20260504011151 | 22 | 263 | 22.5 | 51.5 | 0.00 | 0.00 | 0.00 | 91 | 1011.0 |
| 20260504010951 | 22 | 269 | 22.5 | 51.5 | 0.00 | 0.00 | 0.00 | 91 | 1011.0 |
| 20260504010751 | 22 | 269 | 22.5 | 51.5 | 0.00 | 0.00 | 0.00 | 91 | 1011.0 |
| 20260504010552 | 22 | 269 | 22.5 | 51.5 | 0.00 | 0.00 | 0.00 | 91 | 1011.0 |
| 20260504010152 | 22 | 269 | 20.9 | 51.5 | 0.00 | 0.00 | 0.00 | 91 | 1011.0 |
| 20260504005951 | 22 | 269 | 20.9 | 51.5 | 0.00 | 0.00 | 0.00 | 91 | 1011.0 |
| 20260504005751 | 22 | 269 | 20.9 | 51.5 | 0.00 | 0.00 | 0.00 | 91 | 1011.0 |
| 20260504005551 | 22 | 269 | 20.9 | 51.5 | 0.00 | 0.00 | 0.00 | 91 | 1011.0 |
| 20260504005351 | 22 | 269 | 20.9 | 51.5 | 0.00 | 0.00 | 0.00 | 91 | 1011.0 |
| 20260504005151 | 22 | 269 | 20.9 | 51.5 | 0.00 | 0.00 | 0.00 | 91 | 1011.0 |
| 20260504004951 | 22 | 269 | 20.9 | 51.5 | 0.00 | 0.00 | 0.00 | 91 | 1011.0 |
| 20260504004751 | 22 | 269 | 20.9 | 51.5 | 0.00 | 0.00 | 0.00 | 91 | 1011.0 |
| 20260504004551 | 22 | 269 | 20.9 | 51.5 | 0.00 | 0.00 | 0.00 | 91 | 1011.0 |
| 20260504004151 | 22 | 267 | 20.9 | 54.7 | 0.00 | 0.00 | 0.00 | 90 | 1011.0 |
| 20260504003951 | 21 | 267 | 20.9 | 54.7 | 0.00 | 0.00 | 0.00 | 94 | 1011.0 |
| 20260504003752 | 21 | 267 | 20.9 | 54.7 | 0.00 | 0.00 | 0.00 | 94 | 1011.0 |
| 20260504003551 | 21 | 267 | 20.9 | 54.7 | 0.00 | 0.00 | 0.00 | 94 | 1011.0 |
| 20260504003351 | 21 | 267 | 20.9 | 54.7 | 0.00 | 0.00 | 0.00 | 94 | 1011.0 |
| 20260504003151 | 21 | 267 | 20.9 | 54.7 | 0.00 | 0.00 | 0.00 | 94 | 1011.0 |
| 20260504002951 | 21 | 265 | 20.9 | 59.5 | 0.00 | 0.00 | 0.00 | 94 | 1011.0 |
| 20260504002751 | 21 | 265 | 20.9 | 59.5 | 0.00 | 0.00 | 0.00 | 94 | 1011.0 |
| 20260504002551 | 21 | 265 | 20.9 | 59.5 | 0.00 | 0.00 | 0.00 | 94 | 1011.0 |
| 20260504002352 | 21 | 265 | 20.9 | 59.5 | 0.00 | 0.00 | 0.00 | 94 | 1011.0 |
| 20260504001951 | 21 | 265 | 20.9 | 59.5 | 0.00 | 0.00 | 0.00 | 94 | 1011.0 |
| 20260504001751 | 21 | 265 | 20.9 | 59.5 | 0.00 | 0.00 | 0.00 | 94 | 1011.0 |
| 20260504001551 | 21 | 265 | 20.9 | 59.5 | 0.00 | 0.00 | 0.05 | 94 | 1011.0 |
| 20260504001351 | 21 | 259 | 20.9 | 62.8 | 0.00 | 0.00 | 0.05 | 93 | 1011.0 |
| 20260504001151 | 21 | 259 | 20.9 | 62.8 | 0.00 | 0.00 | 0.05 | 93 | 1011.0 |
| 20260504000951 | 21 | 259 | 20.9 | 62.8 | 0.00 | 0.00 | 0.05 | 94 | 1011.0 |
| 20260504000751 | 21 | 259 | 20.9 | 62.8 | 0.00 | 0.00 | 0.05 | 94 | 1011.0 |
| 20260504000551 | 21 | 259 | 20.9 | 62.8 | 0.00 | 0.00 | 0.05 | 94 | 1011.0 |
| 20260504000354 | 21 | 259 | 20.9 | 62.8 | 0.00 | 0.00 | 0.05 | 94 | 1011.0 |
| 20260503235951 | 21 | 249 | 20.9 | 66.0 | 0.00 | 0.00 | 0.05 | 93 | 1010.0 |
| 20260503235754 | 21 | 249 | 20.9 | 66.0 | 0.00 | 0.00 | 0.05 | 93 | 1010.0 |
| 20260503235551 | 21 | 249 | 20.9 | 66.0 | 0.00 | 0.00 | 0.05 | 93 | 1010.0 |
| 20260503235351 | 21 | 249 | 20.9 | 66.0 | 0.00 | 0.00 | 0.05 | 93 | 1010.0 |
| 20260503235151 | 21 | 249 | 20.9 | 66.0 | 0.00 | 0.00 | 0.05 | 93 | 1010.0 |
| 20260503234951 | 21 | 249 | 20.9 | 66.0 | 0.00 | 0.00 | 0.05 | 93 | 1010.0 |
| 20260503234751 | 21 | 249 | 20.9 | 66.0 | 0.00 | 0.00 | 0.05 | 93 | 1010.0 |
| 20260503234551 | 21 | 249 | 20.9 | 66.0 | 0.00 | 0.00 | 0.05 | 93 | 1010.0 |
| 20260503234351 | 21 | 236 | 24.1 | 67.6 | 0.00 | 0.00 | 0.05 | 93 | 1010.0 |
| 20260503234152 | 21 | 236 | 24.1 | 67.6 | 0.00 | 0.00 | 0.05 | 93 | 1010.0 |
| 20260503233751 | 21 | 236 | 24.1 | 67.6 | 0.00 | 0.00 | 0.05 | 93 | 1010.0 |
| 20260503233552 | 21 | 236 | 24.1 | 67.6 | 0.00 | 0.00 | 0.05 | 93 | 1010.0 |
| 20260503233352 | 21 | 236 | 24.1 | 67.6 | 0.00 | 0.00 | 0.05 | 93 | 1010.0 |
| 20260503233151 | 21 | 236 | 24.1 | 67.6 | 0.00 | 0.00 | 0.05 | 93 | 1010.0 |
| 20260503232952 | 21 | 225 | 27.4 | 70.8 | 0.00 | 0.00 | 0.05 | 91 | 1010.0 |
| 20260503232752 | 21 | 225 | 27.4 | 70.8 | 0.00 | 0.00 | 0.05 | 91 | 1010.0 |
| 20260503232551 | 21 | 225 | 27.4 | 70.8 | 0.00 | 0.00 | 0.05 | 91 | 1010.0 |
| 20260503232351 | 21 | 225 | 27.4 | 70.8 | 0.00 | 0.00 | 0.05 | 91 | 1010.0 |
| 20260503232152 | 21 | 225 | 27.4 | 70.8 | 0.00 | 0.00 | 0.05 | 91 | 1010.0 |
| 20260503231952 | 21 | 225 | 27.4 | 70.8 | 0.00 | 0.00 | 0.05 | 91 | 1010.0 |
| 20260503231551 | 21 | 225 | 27.4 | 70.8 | 0.00 | 0.00 | 0.05 | 91 | 1010.0 |
| 20260503231351 | 21 | 221 | 30.6 | 72.4 | 0.00 | 0.00 | 0.05 | 90 | 1010.0 |
| 20260503231151 | 21 | 221 | 30.6 | 72.4 | 0.00 | 0.00 | 0.05 | 90 | 1010.0 |
| 20260503230951 | 21 | 221 | 30.6 | 72.4 | 0.00 | 0.00 | 0.05 | 90 | 1010.0 |
| 20260503230752 | 21 | 221 | 30.6 | 72.4 | 0.00 | 0.00 | 0.05 | 90 | 1010.0 |
| 20260503230551 | 21 | 221 | 30.6 | 72.4 | 0.00 | 0.00 | 0.05 | 90 | 1010.0 |
| 20260503230351 | 21 | 221 | 30.6 | 72.4 | 0.00 | 0.00 | 0.05 | 90 | 1010.0 |
| 20260503230152 | 21 | 221 | 30.6 | 72.4 | 0.00 | 0.00 | 0.05 | 90 | 1010.0 |
| 20260503225952 | 21 | 222 | 30.6 | 72.4 | 0.00 | 0.00 | 0.05 | 89 | 1010.0 |
| 20260503225552 | 21 | 222 | 30.6 | 72.4 | 0.00 | 0.00 | 0.05 | 89 | 1010.0 |
| 20260503225352 | 21 | 222 | 30.6 | 72.4 | 0.00 | 0.00 | 0.05 | 89 | 1010.0 |
| 20260503225152 | 21 | 222 | 30.6 | 72.4 | 0.00 | 0.00 | 0.05 | 89 | 1010.0 |
| 20260503224952 | 21 | 222 | 30.6 | 72.4 | 0.00 | 0.00 | 0.05 | 89 | 1010.0 |
| 20260503224752 | 21 | 222 | 30.6 | 72.4 | 0.00 | 0.00 | 0.05 | 89 | 1010.0 |
| 20260503224551 | 21 | 222 | 30.6 | 72.4 | 0.00 | 0.00 | 0.05 | 89 | 1010.0 |
| 20260503224352 | 22 | 224 | 32.2 | 74.0 | 0.00 | 0.00 | 0.05 | 87 | 1010.0 |
| 20260503224152 | 22 | 224 | 32.2 | 74.0 | 0.00 | 0.00 | 0.05 | 87 | 1010.0 |
| 20260503223952 | 22 | 224 | 32.2 | 74.0 | 0.00 | 0.00 | 0.05 | 87 | 1010.0 |
| 20260503223752 | 22 | 224 | 32.2 | 74.0 | 0.00 | 0.00 | 0.05 | 87 | 1010.0 |
| 20260503223352 | 22 | 224 | 32.2 | 74.0 | 0.00 | 0.00 | 0.05 | 87 | 1010.0 |
| 20260503223152 | 22 | 224 | 32.2 | 74.0 | 0.00 | 0.00 | 0.05 | 87 | 1010.0 |
| 20260503222952 | 22 | 226 | 33.8 | 74.0 | 0.00 | 0.00 | 0.05 | 85 | 1009.0 |
| 20260503222752 | 22 | 226 | 33.8 | 74.0 | 0.00 | 0.00 | 0.05 | 85 | 1009.0 |
| 20260503222552 | 22 | 226 | 33.8 | 74.0 | 0.00 | 0.00 | 0.05 | 85 | 1009.0 |
| 20260503222352 | 22 | 226 | 33.8 | 74.0 | 0.00 | 0.00 | 0.05 | 85 | 1009.0 |
| 20260503222152 | 22 | 226 | 33.8 | 74.0 | 0.00 | 0.00 | 0.05 | 85 | 1009.0 |
| 20260503221952 | 22 | 226 | 33.8 | 74.0 | 0.00 | 0.00 | 0.05 | 85 | 1009.0 |
| 20260503221752 | 22 | 226 | 33.8 | 74.0 | 0.00 | 0.00 | 0.05 | 85 | 1009.0 |
| 20260503221552 | 22 | 226 | 33.8 | 74.0 | 0.00 | 0.00 | 0.05 | 85 | 1009.0 |
| 20260503221151 | 22 | 228 | 35.4 | 74.0 | 0.00 | 0.00 | 0.05 | 84 | 1009.0 |
| 20260503220952 | 22 | 228 | 35.4 | 74.0 | 0.00 | 0.00 | 0.05 | 84 | 1009.0 |
| 20260503220752 | 22 | 228 | 35.4 | 74.0 | 0.00 | 0.00 | 0.05 | 84 | 1009.0 |
| 20260503220551 | 22 | 228 | 35.4 | 74.0 | 0.00 | 0.00 | 0.05 | 84 | 1009.0 |
| 20260503220351 | 22 | 228 | 35.4 | 74.0 | 0.00 | 0.00 | 0.05 | 84 | 1009.0 |
| 20260503220156 | 22 | 228 | 35.4 | 74.0 | 0.00 | 0.00 | 0.05 | 83 | 1009.0 |
| 20260503215952 | 22 | 228 | 35.4 | 74.0 | 0.00 | 0.00 | 0.05 | 83 | 1009.0 |
| 20260503215751 | 22 | 228 | 35.4 | 74.0 | 0.00 | 0.00 | 0.05 | 83 | 1009.0 |
| 20260503215552 | 22 | 228 | 35.4 | 74.0 | 0.00 | 0.00 | 0.05 | 83 | 1009.0 |
| 20260503215352 | 22 | 228 | 35.4 | 74.0 | 0.00 | 0.00 | 0.05 | 83 | 1009.0 |
| 20260503214952 | 22 | 228 | 35.4 | 74.0 | 0.00 | 0.00 | 0.05 | 83 | 1009.0 |
| 20260503214752 | 22 | 228 | 35.4 | 74.0 | 0.00 | 0.00 | 0.05 | 83 | 1009.0 |
| 20260503214552 | 22 | 228 | 35.4 | 74.0 | 0.00 | 0.00 | 0.05 | 83 | 1009.0 |
| 20260503214352 | 22 | 228 | 35.4 | 75.6 | 0.00 | 0.00 | 0.05 | 81 | 1009.0 |
| 20260503214152 | 22 | 228 | 35.4 | 75.6 | 0.00 | 0.00 | 0.05 | 81 | 1009.0 |
| 20260503213952 | 22 | 228 | 35.4 | 75.6 | 0.00 | 0.00 | 0.05 | 81 | 1009.0 |
| 20260503213752 | 22 | 228 | 35.4 | 75.6 | 0.00 | 0.00 | 0.05 | 81 | 1009.0 |
| 20260503213553 | 22 | 228 | 35.4 | 75.6 | 0.00 | 0.00 | 0.05 | 81 | 1009.0 |
| 20260503213352 | 22 | 228 | 35.4 | 75.6 | 0.00 | 0.00 | 0.05 | 81 | 1009.0 |
| 20260503212952 | 22 | 228 | 35.4 | 75.6 | 0.00 | 0.00 | 0.05 | 79 | 1009.0 |
| 20260503212752 | 22 | 228 | 35.4 | 75.6 | 0.00 | 0.00 | 0.05 | 79 | 1009.0 |
| 20260503212552 | 22 | 228 | 35.4 | 75.6 | 0.00 | 0.00 | 0.05 | 79 | 1009.0 |
| 20260503212352 | 22 | 228 | 35.4 | 75.6 | 0.00 | 0.00 | 0.05 | 79 | 1009.0 |
| 20260503212152 | 22 | 228 | 35.4 | 75.6 | 0.00 | 0.00 | 0.05 | 79 | 1009.0 |
| 20260503211952 | 22 | 228 | 35.4 | 75.6 | 0.00 | 0.00 | 0.05 | 79 | 1009.0 |
| 20260503211752 | 22 | 228 | 35.4 | 75.6 | 0.00 | 0.00 | 0.05 | 79 | 1009.0 |
| 20260503211352 | 22 | 229 | 35.4 | 77.2 | 0.00 | 0.00 | 0.05 | 77 | 1009.0 |
| 20260503211151 | 22 | 229 | 35.4 | 77.2 | 0.00 | 0.00 | 0.05 | 77 | 1009.0 |
| 20260503210952 | 22 | 229 | 35.4 | 77.2 | 0.00 | 0.00 | 0.05 | 77 | 1009.0 |
| 20260503210752 | 22 | 229 | 35.4 | 77.2 | 0.00 | 0.00 | 0.05 | 77 | 1009.0 |